1486886400.98,7050,11.19,74018.3,-1.03,-36.37,-36.73,0,*60
1486886402.24,7051,11.19,74018.5,-1.01,-35.95,-36.55,0,*6C
1486886403.45,7052,11.19,74022.0,-1.03,-36.07,-36.55,0,*65
1486886404.7,7053,11.19,74018.0,-1.01,-36.13,-36.55,0,*63
1486886405.98,7054,11.19,74022.0,-1.01,-36.13,-36.61,0,*63
1486886407.21,7055,11.19,74016.5,-0.99,-35.95,-36.55,0,*58
1486886408.46,7056,11.19,74022.8,-0.99,-35.95,-36.49,0,*56
1486886409.68,7057,11.19,74022.3,-0.97,-35.89,-36.31,0,*5B
1486886410.88,7058,11.19,74018.3,-0.99,-36.01,-36.55,0,*5B
1486886412.12,7059,11.19,74018.3,-0.97,-36.13,-36.67,0,*56
1486886413.32,7060,11.19,74020.5,-0.99,-35.89,-36.43,0,*54
1486886414.59,7061,11.19,74022.8,-0.97,-35.95,-36.49,0,*5C
1486886415.84,7062,11.19,74020.8,-0.97,-35.71,-36.25,0,*5F
1486886417.06,7063,11.19,74018.8,-0.97,-35.71,-36.31,0,*5B
1486886418.3,7064,11.19,74016.0,-0.95,-35.83,-36.37,0,*55
1486886419.5,7065,11.19,74018.5,-0.95,-36.07,-36.73,0,*5B
1486886420.7,7066,11.19,74022.0,-0.95,-36.01,-36.43,0,*5D
1486886421.9,7067,11.19,74020.3,-0.95,-36.01,-36.55,0,*5B
1486886423.12,7068,11.19,74022.3,-0.95,-36.61,-37.03,0,*50
1486886424.31,7069,11.19,74018.5,-0.95,-36.55,-36.97,0,*5A
1486886425.56,7070,11.19,74018.5,-0.93,-36.61,-36.97,0,*53
1486886426.78,7071,11.19,74022.3,-0.95,-36.61,-36.97,0,*54
1486886428.02,7072,11.19,74018.8,-0.93,-36.79,-37.15,0,*53
1486886429.24,7073,11.19,74018.5,-0.95,-36.79,-37.33,0,*50
1486886430.5,7074,11.19,74020.0,-0.97,-36.25,-36.79,0,*53
1486886431.72,7075,11.19,74022.3,-0.95,-36.19,-36.61,0,*56
1486886432.97,7076,11.19,74020.8,-0.93,-36.25,-36.73,0,*5F
1486886434.19,7077,11.19,74016.8,-0.95,-36.01,-36.61,0,*5D
1486886435.42,7078,11.19,74018.8,-0.93,-36.01,-36.55,0,*53
1486886436.66,7079,11.19,74022.3,-0.93,-35.83,-36.43,0,*5C
1486886437.9,7080,11.19,74016.8,-0.91,-35.83,-36.37,0,*5B
1486886439.13,7081,11.19,74018.3,-0.93,-36.01,-36.55,0,*55
1486886440.35,7082,11.19,74022.5,-0.93,-35.89,-36.43,0,*52
1486886441.59,7083,11.19,74022.3,-0.93,-36.37,-36.85,0,*5F
1486886442.86,7084,11.19,74020.8,-0.93,-36.25,-36.61,0,*51
1486886444.13,7085,11.19,74020.3,-0.89,-35.95,-36.37,0,*50
1486886445.35,7086,11.19,74016.8,-0.91,-35.83,-36.31,0,*5B
1486886446.57,7087,11.19,74020.8,-0.91,-36.31,-36.79,0,*5C
1486886447.76,7088,11.19,74020.0,-0.91,-36.55,-36.97,0,*51
1486886448.96,7089,11.19,74020.5,-0.91,-36.55,-36.97,0,*50
1486886450.16,7090,11.19,74018.3,-0.91,-36.73,-37.15,0,*57
1486886451.36,7091,11.19,74016.0,-0.91,-36.73,-37.15,0,*56
1486886452.56,7092,11.19,74018.0,-0.91,-36.73,-37.27,0,*54
1486886453.75,7093,11.19,74020.0,-0.91,-36.19,-36.73,0,*59
1486886454.95,7094,11.19,74020.5,-0.91,-36.01,-36.55,0,*53
1486886456.19,7095,11.19,74018.8,-0.89,-36.13,-36.67,0,*59
1486886457.43,7096,11.25,74022.0,-0.89,-36.37,-36.97,0,*53
1486886458.67,7097,11.19,74016.8,-0.89,-36.49,-36.97,0,*5B
1486886459.87,7098,11.19,74020.3,-0.91,-36.55,-36.97,0,*50
1486886461.07,7099,11.19,74018.3,-0.91,-36.73,-37.15,0,*5E
1486886462.27,7100,11.19,74018.5,-0.91,-36.73,-37.33,0,*5B
1486886463.46,7101,11.25,74022.5,-0.91,-36.73,-37.33,0,*5A
1486886464.66,7102,11.19,74016.0,-0.91,-36.73,-37.33,0,*59
1486886465.88,7103,11.19,74016.5,-0.91,-36.91,-37.33,0,*54
1486886467.1,7104,11.19,74018.3,-0.93,-36.85,-37.33,0,*54
1486886468.32,7105,11.19,74020.0,-0.91,-36.55,-37.09,0,*53
1486886469.56,7106,11.25,74022.5,-0.91,-36.37,-36.79,0,*52
1486886470.78,7107,11.19,74016.8,-0.91,-36.37,-36.97,0,*53
1486886472.02,7108,11.25,74020.8,-0.91,-36.49,-36.91,0,*53
1486886473.24,7109,11.19,74018.8,-0.91,-36.13,-36.55,0,*55
1486886474.47,7110,11.19,74018.0,-0.91,-36.13,-36.67,0,*5C
1486886475.68,7111,11.19,74016.5,-0.89,-36.19,-36.67,0,*5E
1486886476.93,7112,11.19,74018.3,-0.91,-36.37,-36.91,0,*51
1486886478.15,7113,11.19,74016.3,-0.91,-36.67,-37.09,0,*55
1486886479.35,7114,11.25,74022.3,-0.91,-36.73,-37.15,0,*5A
1486886480.57,7115,11.25,74020.8,-0.89,-36.73,-37.33,0,*56
1486886481.79,7116,11.19,74018.0,-0.91,-36.67,-37.09,0,*50
1486886483.03,7117,11.19,74020.5,-0.91,-36.37,-36.91,0,*54
1486886484.25,7118,11.19,74018.5,-0.89,-36.55,-36.97,0,*50
1486886485.45,7119,11.19,74018.3,-0.91,-36.67,-37.15,0,*52
1486886486.67,7120,11.19,74018.0,-0.91,-36.91,-37.33,0,*55
1486886487.88,7121,11.19,74016.3,-0.91,-36.79,-37.33,0,*52
1486886489.13,7122,11.25,74020.3,-0.91,-36.91,-37.51,0,*53
1486886490.35,7123,11.19,74020.3,-0.91,-36.91,-37.45,0,*57
1486886491.57,7124,11.19,74018.8,-0.91,-36.37,-36.73,0,*58
1486886492.79,7125,11.19,74018.5,-0.93,-36.19,-36.73,0,*57
1486886494.04,7126,11.25,74020.5,-0.93,-36.25,-36.73,0,*5B
1486886495.28,7127,11.19,74018.5,-0.89,-36.55,-37.09,0,*5A
1486886496.5,7128,11.19,74020.3,-0.89,-36.67,-36.97,0,*52
1486886497.76,7129,11.19,74018.8,-0.89,-36.37,-36.91,0,*50
1486886498.98,7130,11.19,74020.3,-0.91,-36.31,-36.79,0,*51
1486886500.2,7131,11.25,74020.3,-0.89,-36.19,-36.55,0,*5D
1486886501.42,7132,11.25,74020.3,-0.91,-36.13,-36.55,0,*5D
1486886502.65,7133,11.25,74022.8,-0.91,-36.13,-36.55,0,*5C
1486886503.87,7134,11.19,74018.5,-0.89,-36.31,-36.67,0,*53
1486886505.09,7135,11.19,74016.8,-0.89,-36.19,-36.55,0,*59
1486886506.31,7136,11.25,74022.0,-0.89,-36.01,-36.55,0,*53
1486886507.53,7137,11.19,74016.5,-0.89,-36.01,-36.55,0,*52
1486886508.77,7138,11.19,74016.3,-0.89,-36.49,-36.97,0,*5F
1486886510.04,7139,11.19,74020.3,-0.85,-36.61,-37.09,0,*5E
1486886511.28,7140,11.19,74022.3,-0.85,-36.67,-37.21,0,*5C
1486886512.5,7141,11.25,74022.0,-0.89,-36.73,-37.27,0,*52
1486886513.74,7142,11.19,74016.8,-0.85,-36.67,-37.09,0,*54
1486886514.98,7143,11.25,74022.5,-0.85,-36.61,-37.27,0,*5F
1486886516.24,7144,11.19,74016.8,-0.89,-36.49,-36.91,0,*52
1486886517.46,7145,11.25,74020.8,-0.89,-36.31,-36.73,0,*50
1486886518.68,7146,11.19,74020.5,-0.89,-36.31,-36.73,0,*53
1486886519.92,7147,11.19,74020.5,-0.89,-36.13,-36.67,0,*57
1486886521.16,7148,11.19,74018.0,-0.85,-36.67,-37.09,0,*5E
1486886522.37,7149,11.19,74018.8,-0.85,-36.85,-37.45,0,*5B
1486886523.62,7150,11.25,74020.8,-0.85,-37.09,-37.57,0,*55
1486886524.89,7151,11.19,74018.3,-0.89,-37.09,-37.63,0,*5F
1486886526.11,7152,11.25,74020.5,-0.91,-36.91,-37.33,0,*50
1486886527.33,7153,11.25,74022.5,-0.89,-36.73,-37.15,0,*50
1486886528.57,7154,11.19,74016.5,-0.89,-36.79,-37.33,0,*59
1486886529.78,7155,11.19,74016.5,-0.89,-36.73,-37.33,0,*52
1486886531.0,7156,11.19,74016.8,-0.89,-36.31,-36.73,0,*52
1486886532.27,7157,11.25,74022.0,-0.89,-35.95,-36.49,0,*57
1486886533.51,7158,11.25,74020.8,-0.89,-36.31,-36.79,0,*56
1486886534.73,7159,11.25,74020.3,-0.89,-36.55,-37.15,0,*5E
1486886535.99,7160,11.25,74020.3,-0.89,-36.49,-37.09,0,*54
1486886537.21,7161,11.19,74016.3,-0.89,-36.55,-36.97,0,*5E
1486886538.45,7162,11.19,74020.3,-0.89,-36.49,-36.97,0,*50
1486886539.71,7163,11.25,74022.8,-0.89,-36.49,-36.79,0,*51
1486886540.93,7164,11.25,74022.0,-0.89,-36.19,-36.67,0,*5C
1486886542.17,7165,11.19,74016.5,-0.89,-36.37,-37.15,0,*55
1486886543.42,7166,11.25,74022.8,-0.89,-36.67,-37.09,0,*5E
1486886544.68,7167,11.19,74018.8,-0.85,-36.49,-36.91,0,*5F
1486886545.92,7168,11.19,74016.5,-0.85,-36.67,-37.09,0,*5C
1486886547.19,7169,11.25,74022.3,-0.85,-36.61,-37.09,0,*5B
1486886548.43,7170,11.25,74020.3,-0.85,-36.43,-36.91,0,*53
1486886549.67,7171,11.19,74020.3,-0.85,-36.13,-36.67,0,*5E
1486886550.91,7172,11.25,74020.0,-0.85,-36.43,-36.91,0,*51
1486886552.13,7173,11.25,74020.3,-0.83,-36.07,-36.43,0,*59
1486886553.39,7174,11.25,74022.8,-0.85,-36.13,-36.61,0,*5D
1486886554.64,7175,11.25,74020.8,-0.83,-36.07,-36.61,0,*5F
1486886555.89,7176,11.25,74020.5,-0.85,-36.25,-36.73,0,*59
1486886557.14,7177,11.19,74018.0,-0.83,-36.61,-36.97,0,*54
1486886558.36,7178,11.25,74022.3,-0.83,-36.19,-36.55,0,*5A
1486886559.64,7179,11.25,74022.5,-0.83,-36.25,-36.79,0,*5A
1486886560.86,7180,11.25,74022.3,-0.83,-36.55,-36.97,0,*5B
1486886562.12,7181,11.25,74020.5,-0.83,-36.97,-37.39,0,*51
1486886563.34,7182,11.25,74022.5,-0.83,-36.67,-37.15,0,*53
1486886564.59,7183,11.19,74016.5,-0.85,-36.85,-37.39,0,*56
1486886565.84,7184,11.19,74020.5,-0.83,-36.37,-36.67,0,*54
1486886567.07,7185,11.25,74022.5,-0.83,-36.07,-36.67,0,*56
1486886568.32,7186,11.19,74018.5,-0.83,-35.71,-36.25,0,*51
1486886569.54,7187,11.19,74016.3,-0.81,-35.65,-36.19,0,*58
1486886570.77,7188,11.19,74018.3,-0.83,-36.07,-36.55,0,*5A
1486886572.01,7189,11.19,74020.5,-0.81,-36.37,-36.79,0,*54
1486886573.23,7190,11.19,74020.3,-0.81,-36.79,-37.33,0,*59
1486886574.43,7191,11.19,74018.3,-0.81,-36.55,-37.15,0,*52
1486886575.66,7192,11.19,74016.8,-0.81,-36.67,-37.21,0,*57
1486886576.9,7193,11.19,74018.0,-0.81,-36.49,-36.91,0,*50
1486886578.17,7194,11.19,74016.5,-0.79,-36.37,-36.91,0,*59
1486886579.42,7195,11.25,74022.5,-0.81,-36.79,-37.39,0,*56
1486886580.64,7196,11.25,74022.8,-0.81,-36.61,-37.03,0,*55
1486886581.86,7197,11.25,74020.5,-0.81,-36.37,-36.85,0,*58
1486886583.08,7198,11.19,74022.5,-0.81,-36.55,-36.79,0,*50
1486886584.3,7199,11.19,74020.5,-0.81,-36.61,-37.03,0,*5A
1486886585.54,7200,11.19,74018.5,-0.79,-36.31,-36.79,0,*57
1486886586.79,7201,11.19,74018.5,-0.79,-36.31,-36.79,0,*56
1486886588.03,7202,11.19,74022.0,-0.79,-36.37,-36.97,0,*53
1486886589.23,7203,11.25,74020.8,-0.81,-36.43,-36.97,0,*56
1486886590.47,7204,11.19,74016.8,-0.79,-36.31,-36.79,0,*53
1486886591.71,7205,11.19,74020.5,-0.77,-36.37,-36.79,0,*5A
1486886592.96,7206,11.25,74022.5,-0.79,-36.55,-37.09,0,*55
1486886594.23,7207,11.19,74022.3,-0.79,-36.37,-36.91,0,*50
1486886595.48,7208,11.25,74020.3,-0.79,-36.37,-36.73,0,*53
1486886596.7,7209,11.19,74022.5,-0.79,-36.31,-36.73,0,*54
1486886597.92,7210,11.25,74024.8,-0.81,-36.37,-36.85,0,*54
1486886599.16,7211,11.19,74022.3,-0.77,-36.37,-36.79,0,*5F
1486886600.39,7212,11.25,74020.3,-0.77,-36.13,-36.79,0,*5A
1486886601.64,7213,11.19,74018.3,-0.77,-36.49,-37.09,0,*52
1486886602.86,7214,11.19,74016.8,-0.77,-36.55,-37.09,0,*58
1486886604.08,7215,11.25,74020.5,-0.77,-36.31,-36.61,0,*54
1486886605.32,7216,11.19,74022.3,-0.77,-35.95,-36.37,0,*59
1486886606.54,7217,11.25,74022.5,-0.77,-35.83,-36.31,0,*59
1486886607.74,7218,11.19,74022.0,-0.77,-36.55,-36.97,0,*52
1486886608.98,7219,11.19,74020.5,-0.77,-36.37,-36.79,0,*57
1486886610.17,7220,11.19,74020.3,-0.77,-36.55,-37.15,0,*52
1486886611.37,7221,11.19,74022.3,-0.77,-36.31,-36.73,0,*50
1486886612.64,7222,11.25,74020.0,-0.75,-36.49,-36.91,0,*52
1486886613.86,7223,11.19,74016.3,-0.77,-36.13,-36.55,0,*56
1486886615.08,7224,11.19,74022.5,-0.75,-35.89,-36.43,0,*54
1486886616.33,7225,11.19,74018.3,-0.75,-36.25,-36.73,0,*53
1486886617.55,7226,11.25,74020.0,-0.77,-36.19,-36.61,0,*5E
1486886618.77,7227,11.19,74022.5,-0.75,-35.77,-36.31,0,*53
1486886620.03,7228,11.25,74022.5,-0.75,-35.77,-36.25,0,*59
1486886621.24,7229,11.19,74020.8,-0.73,-35.59,-36.13,0,*57
1486886622.48,7230,11.25,74020.3,-0.71,-36.19,-36.61,0,*5F
1486886623.72,7231,11.19,74018.3,-0.71,-36.01,-36.25,0,*57
1486886624.94,7232,11.19,74016.8,-0.73,-35.89,-36.25,0,*55
1486886626.19,7233,11.19,74020.8,-0.71,-36.07,-36.49,0,*59
1486886627.42,7234,11.19,74018.8,-0.71,-36.79,-37.33,0,*5B
1486886628.67,7235,11.19,74020.5,-0.71,-36.97,-37.39,0,*50
1486886629.92,7236,11.19,74022.3,-0.71,-36.97,-37.51,0,*5D
1486886631.16,7237,11.19,74022.3,-0.71,-37.15,-37.39,0,*59
1486886632.37,7238,11.19,74022.5,-0.73,-36.91,-37.45,0,*52
1486886633.57,7239,11.19,74020.5,-0.73,-37.03,-37.57,0,*5A
1486886634.79,7240,11.25,74022.3,-0.73,-37.21,-37.57,0,*54
1486886636.04,7241,11.19,74022.8,-0.71,-36.97,-37.39,0,*53
1486886637.22,7242,11.19,74018.8,-0.73,-37.03,-37.45,0,*55
1486886638.41,7243,11.19,74022.5,-0.73,-36.73,-37.27,0,*56
1486886639.63,7244,11.19,74020.8,-0.73,-36.91,-37.45,0,*59
1486886640.84,7245,11.19,74020.3,-0.71,-37.15,-37.57,0,*54
1486886642.03,7246,11.25,74022.5,-0.73,-37.03,-37.57,0,*52
1486886643.29,7247,11.19,74022.0,-0.73,-37.21,-37.63,0,*54
1486886644.56,7248,11.19,74020.0,-0.75,-37.39,-37.81,0,*58
1486886645.78,7249,11.19,74022.5,-0.75,-37.45,-37.87,0,*54
1486886647.0,7250,11.19,74022.0,-0.77,-37.45,-37.93,0,*5B
1486886648.25,7251,11.19,74020.3,-0.75,-37.27,-37.81,0,*5F
1486886649.52,7252,11.19,74020.5,-0.75,-36.91,-37.39,0,*53
1486886650.74,7253,11.19,74022.5,-0.77,-36.55,-37.09,0,*5B
1486886651.98,7254,11.19,74016.3,-0.77,-36.37,-36.79,0,*5E
1486886653.25,7255,11.19,74018.5,-0.75,-35.95,-36.49,0,*55
1486886654.48,7256,11.19,74020.5,-0.75,-36.07,-36.43,0,*54
1486886655.73,7257,11.19,74020.3,-0.75,-35.77,-36.25,0,*51
1486886656.98,7258,11.19,74022.3,-0.75,-35.89,-36.25,0,*5F
1486886658.2,7259,11.19,74020.0,-0.71,-36.01,-36.43,0,*59
1486886659.39,7260,11.19,74022.8,-0.73,-36.43,-36.85,0,*5D
1486886660.6,7261,11.19,74018.8,-0.71,-36.43,-36.97,0,*5D
1486886661.82,7262,11.19,74020.5,-0.73,-36.49,-37.03,0,*5A
1486886663.03,7263,11.19,74020.8,-0.73,-36.25,-36.85,0,*5E
1486886664.25,7264,11.19,74020.8,-0.71,-35.89,-36.43,0,*54
1486886665.47,7265,11.19,74018.3,-0.71,-35.89,-36.43,0,*55
1486886666.69,7266,11.19,74020.0,-0.71,-36.43,-36.85,0,*59
1486886667.95,7267,11.19,74020.0,-0.71,-36.37,-36.79,0,*58
1486886669.17,7268,11.19,74022.0,-0.69,-36.61,-37.15,0,*56
1486886670.41,7269,11.19,74020.0,-0.69,-36.79,-37.39,0,*50
1486886671.64,7270,11.19,74022.3,-0.69,-36.97,-37.39,0,*58
1486886672.86,7271,11.19,74020.5,-0.69,-37.03,-37.39,0,*55
1486886674.05,7272,11.19,74020.5,-0.69,-37.03,-37.57,0,*5E
1486886675.24,7273,11.25,74022.0,-0.73,-37.03,-37.57,0,*54
1486886676.47,7274,11.19,74022.8,-0.73,-37.21,-37.57,0,*53
1486886677.71,7275,11.19,74020.8,-0.73,-37.09,-37.63,0,*5F
1486886678.93,7276,11.19,74022.3,-0.73,-37.09,-37.57,0,*5B
1486886680.15,7277,11.19,74024.5,-0.71,-36.67,-37.15,0,*57
1486886681.37,7278,11.19,74020.8,-0.73,-36.55,-37.21,0,*5C
1486886682.57,7279,11.19,74020.3,-0.73,-36.31,-36.73,0,*59
1486886683.81,7280,11.19,74022.3,-0.73,-36.49,-36.91,0,*5C
1486886685.05,7281,11.19,74018.8,-0.71,-36.01,-36.61,0,*5C
1486886686.26,7282,11.19,74022.8,-0.71,-36.43,-36.85,0,*53
1486886687.48,7283,11.19,74022.3,-0.71,-36.43,-36.85,0,*52
1486886688.72,7284,11.19,74020.0,-0.71,-36.49,-37.03,0,*50
1486886689.98,7285,11.19,74020.0,-0.71,-36.37,-36.79,0,*54
1486886691.25,7286,11.19,74020.8,-0.71,-36.49,-37.21,0,*52
1486886692.47,7287,11.19,74020.8,-0.71,-36.97,-37.33,0,*53
1486886693.71,7288,11.19,74024.0,-0.71,-36.67,-37.21,0,*50
1486886694.95,7289,11.19,74020.3,-0.71,-36.25,-36.85,0,*58
1486886696.18,7290,11.19,74020.8,-0.71,-36.07,-36.67,0,*5C
1486886697.42,7291,11.19,74022.8,-0.67,-35.83,-36.19,0,*5C
1486886698.64,7292,11.19,74020.3,-0.67,-35.77,-36.19,0,*54
1486886699.91,7293,11.19,74020.0,-0.67,-36.37,-36.91,0,*52
1486886701.13,7294,11.19,74022.3,-0.69,-36.55,-37.09,0,*5F
1486886702.38,7295,11.19,74022.3,-0.67,-36.61,-37.15,0,*5A
1486886703.6,7296,11.19,74022.0,-0.69,-36.97,-37.39,0,*50
1486886704.82,7297,11.19,74020.3,-0.67,-36.97,-37.45,0,*54
1486886706.01,7298,11.19,74022.5,-0.69,-36.85,-37.33,0,*57
1486886707.24,7299,11.19,74024.5,-0.69,-36.85,-37.51,0,*52
1486886708.48,7300,11.19,74020.8,-0.67,-36.91,-37.33,0,*5C
1486886709.73,7301,11.19,74022.3,-0.71,-36.61,-37.15,0,*51
1486886710.94,7302,11.19,74022.5,-0.69,-36.19,-36.61,0,*56
1486886712.19,7303,11.19,74020.3,-0.69,-36.25,-36.79,0,*51
1486886713.45,7304,11.19,74020.3,-0.67,-36.37,-36.79,0,*5B
1486886714.68,7305,11.19,74022.8,-0.69,-36.25,-36.67,0,*58
1486886715.9,7306,11.19,74022.3,-0.67,-36.55,-36.97,0,*5D
1486886717.14,7307,11.19,74022.3,-0.67,-36.91,-37.33,0,*5B
1486886718.39,7308,11.19,74022.8,-0.67,-36.91,-37.33,0,*54
1486886719.64,7309,11.19,74024.5,-0.67,-36.97,-37.51,0,*57
1486886720.86,7310,11.19,74020.5,-0.69,-36.97,-37.39,0,*5F
1486886722.08,7311,11.19,74024.0,-0.69,-36.37,-36.85,0,*52
1486886723.3,7312,11.19,74022.3,-0.67,-36.43,-36.97,0,*5F
1486886724.49,7313,11.19,74024.8,-0.69,-36.85,-37.33,0,*55
1486886725.68,7314,11.19,74022.0,-0.69,-36.85,-37.33,0,*52
1486886726.91,7315,11.19,74020.3,-0.67,-36.31,-36.73,0,*57
1486886728.1,7316,11.19,74022.3,-0.69,-36.43,-37.03,0,*59
1486886729.29,7317,11.19,74020.8,-0.69,-36.43,-36.97,0,*54
1486886730.52,7318,11.19,74020.3,-0.67,-36.55,-37.15,0,*59
1486886731.77,7319,11.19,74024.8,-0.67,-36.61,-37.15,0,*5F
1486886732.96,7320,11.19,74022.5,-0.69,-36.97,-37.33,0,*56
1486886734.18,7321,11.19,74016.8,-0.67,-36.97,-37.45,0,*58
1486886735.4,7322,11.19,74022.8,-0.69,-37.15,-37.63,0,*5A
1486886736.62,7323,11.19,74020.8,-0.69,-37.33,-37.63,0,*5F
1486886737.87,7324,11.19,74022.8,-0.69,-36.79,-37.21,0,*51
1486886739.08,7325,11.19,74022.3,-0.69,-36.49,-36.97,0,*5F
1486886740.32,7326,11.19,74022.8,-0.69,-36.79,-37.39,0,*5A
1486886741.52,7327,11.19,74020.5,-0.69,-36.67,-37.15,0,*5A
1486886742.76,7328,11.19,74020.0,-0.69,-36.79,-37.21,0,*5D
1486886743.99,7329,11.19,74022.8,-0.69,-36.67,-37.21,0,*53
1486886745.21,7330,11.19,74020.8,-0.69,-36.49,-37.15,0,*50
1486886746.4,7331,11.19,74020.3,-0.69,-36.43,-37.03,0,*5C
1486886747.62,7332,11.19,74022.5,-0.67,-36.43,-37.15,0,*56
1486886748.84,7333,11.19,74024.8,-0.69,-36.37,-36.85,0,*52
1486886750.09,7334,11.19,74020.5,-0.67,-36.61,-37.15,0,*50
1486886751.28,7335,11.19,74024.0,-0.69,-36.67,-37.15,0,*59
1486886752.48,7336,11.19,74026.0,-0.69,-36.55,-36.97,0,*50
1486886753.72,7337,11.19,74024.5,-0.67,-36.19,-36.61,0,*5E
1486886754.91,7338,11.19,74020.0,-0.69,-36.43,-36.85,0,*5A
1486886756.1,7339,11.19,74020.8,-0.69,-36.43,-36.97,0,*58
1486886757.3,7340,11.19,74020.3,-0.69,-36.43,-37.03,0,*5A
1486886758.54,7341,11.19,74022.3,-0.67,-36.31,-36.79,0,*5C
1486886759.76,7342,11.19,74020.5,-0.67,-36.19,-36.73,0,*5F
1486886761.0,7343,11.19,74020.3,-0.67,-36.13,-36.43,0,*57
1486886762.27,7344,11.19,74026.8,-0.67,-36.13,-36.61,0,*50
1486886763.49,7345,11.19,74022.5,-0.67,-36.01,-36.55,0,*55
1486886764.72,7346,11.19,74020.5,-0.67,-36.19,-36.55,0,*5F
1486886765.96,7347,11.19,74020.3,-0.63,-36.07,-36.37,0,*51
1486886767.23,7348,11.19,74022.3,-0.63,-35.95,-36.49,0,*5F
1486886768.51,7349,11.19,74022.5,-0.63,-35.95,-36.49,0,*5E
1486886769.7,7350,11.19,74020.8,-0.61,-35.89,-36.31,0,*56
1486886770.89,7351,11.19,74022.5,-0.61,-35.89,-36.31,0,*57
1486886772.11,7352,11.19,74022.0,-0.61,-35.89,-36.37,0,*52
1486886773.33,7353,11.19,74024.5,-0.61,-36.07,-36.49,0,*5F
1486886774.54,7354,11.19,74020.3,-0.61,-36.13,-36.85,0,*5D
1486886775.76,7355,11.19,74020.3,-0.59,-36.67,-37.15,0,*5C
1486886776.99,7356,11.19,74020.0,-0.61,-36.73,-37.21,0,*56
1486886778.21,7357,11.19,74020.0,-0.61,-36.73,-37.21,0,*57
1486886779.43,7358,11.19,74026.3,-0.61,-36.73,-37.21,0,*58
1486886780.66,7359,11.19,74024.8,-0.61,-36.85,-37.39,0,*59
1486886781.88,7360,11.19,74024.3,-0.61,-37.03,-37.51,0,*52
1486886783.09,7361,11.19,74020.3,-0.63,-37.03,-37.45,0,*54
1486886784.34,7362,11.19,74020.3,-0.61,-37.09,-37.51,0,*5A
1486886785.56,7363,11.19,74020.3,-0.61,-37.03,-37.51,0,*51
1486886786.81,7364,11.19,74020.5,-0.63,-36.85,-37.21,0,*5C
1486886788.06,7365,11.19,74020.3,-0.63,-36.67,-37.09,0,*5B
1486886789.31,7366,11.19,74020.0,-0.63,-36.85,-37.39,0,*57
1486886790.52,7367,11.19,74022.8,-0.61,-36.91,-37.45,0,*5A
1486886791.79,7368,11.19,74020.5,-0.63,-36.49,-37.09,0,*5A
1486886793.01,7369,11.19,74020.5,-0.61,-36.25,-36.85,0,*56
1486886794.23,7370,11.19,74026.3,-0.61,-36.13,-36.67,0,*57
1486886795.44,7371,11.19,74022.3,-0.61,-35.89,-36.37,0,*53
1486886796.66,7372,11.19,74022.8,-0.61,-36.25,-36.85,0,*5C
1486886797.88,7373,11.19,74022.8,-0.61,-36.25,-36.73,0,*54
1486886799.1,7374,11.19,74022.8,-0.61,-36.25,-36.73,0,*53
1486886800.29,7375,11.19,74024.0,-0.61,-36.31,-36.85,0,*5E
1486886801.52,7376,11.19,74020.3,-0.61,-36.25,-36.73,0,*51
1486886802.73,7377,11.19,74026.3,-0.61,-35.89,-36.37,0,*55
1486886803.95,7378,11.19,74024.0,-0.59,-35.71,-36.19,0,*5A
1486886805.16,7379,11.19,74026.3,-0.57,-35.65,-36.19,0,*50
1486886806.44,7380,11.19,74020.8,-0.59,-35.83,-36.25,0,*5F
1486886807.69,7381,11.19,74024.5,-0.57,-35.83,-36.25,0,*50
1486886808.91,7382,11.19,74022.8,-0.57,-35.89,-36.25,0,*59
1486886810.13,7383,11.19,74022.8,-0.57,-35.83,-36.31,0,*57
1486886811.35,7384,11.19,74024.0,-0.57,-36.49,-37.03,0,*55
1486886812.54,7385,11.19,74024.0,-0.57,-36.85,-37.33,0,*57
1486886813.77,7386,11.19,74022.0,-0.57,-36.97,-37.39,0,*5D
1486886815.01,7387,11.19,74024.3,-0.55,-36.91,-37.33,0,*52
1486886816.23,7388,11.19,74020.5,-0.57,-36.97,-37.39,0,*53
1486886817.48,7389,11.19,74024.0,-0.59,-36.49,-37.03,0,*56
1486886818.7,7390,11.19,74026.0,-0.57,-36.25,-36.67,0,*59
1486886819.92,7391,11.19,74024.8,-0.57,-36.25,-36.85,0,*54
1486886821.14,7392,11.19,74026.3,-0.57,-36.07,-36.49,0,*57
1486886822.33,7393,11.19,74020.3,-0.57,-36.31,-36.85,0,*53
1486886823.57,7394,11.19,74022.8,-0.55,-36.37,-36.97,0,*53
1486886824.79,7395,11.19,74020.5,-0.55,-36.55,-37.15,0,*5D
1486886826.01,7396,11.19,74022.0,-0.55,-36.43,-36.97,0,*52
1486886827.22,7397,11.19,74024.5,-0.57,-36.19,-36.79,0,*5E
1486886828.46,7398,11.19,74022.8,-0.57,-36.25,-36.79,0,*5E
1486886829.68,7399,11.19,74026.0,-0.57,-36.49,-37.03,0,*59
1486886830.91,7400,11.19,74026.5,-0.59,-36.67,-37.15,0,*5B
1486886832.1,7401,11.19,74026.5,-0.57,-37.03,-37.57,0,*51
1486886833.3,7402,11.19,74022.8,-0.57,-37.15,-37.57,0,*55
1486886834.57,7403,11.19,74020.5,-0.55,-37.09,-37.51,0,*5D
1486886835.81,7404,11.19,74026.3,-0.55,-37.27,-37.69,0,*5D
1486886837.02,7405,11.19,74020.3,-0.57,-37.33,-37.93,0,*5E
1486886838.24,7406,11.19,74022.5,-0.57,-37.33,-37.93,0,*5D
1486886839.43,7407,11.19,74022.0,-0.57,-37.03,-37.45,0,*54
1486886840.65,7408,11.19,74024.0,-0.59,-36.31,-36.97,0,*5B
1486886841.89,7409,11.19,74024.0,-0.59,-36.01,-36.49,0,*5A
1486886843.09,7410,11.19,74026.5,-0.57,-35.89,-36.31,0,*50
1486886844.32,7411,11.19,74020.5,-0.57,-36.25,-36.67,0,*57
1486886845.56,7412,11.19,74022.0,-0.57,-36.25,-36.79,0,*5B
1486886846.8,7413,11.19,74026.0,-0.55,-36.13,-36.73,0,*57
1486886848.02,7414,11.19,74026.8,-0.55,-36.01,-36.55,0,*57
1486886849.29,7415,11.19,74026.8,-0.55,-35.95,-36.37,0,*5C
1486886850.51,7416,11.19,74020.5,-0.53,-35.77,-36.25,0,*56
1486886851.72,7417,11.19,74026.3,-0.53,-35.59,-36.13,0,*5E
1486886852.95,7418,11.19,74024.0,-0.53,-35.77,-36.25,0,*58
1486886854.16,7419,11.19,74024.3,-0.53,-35.65,-36.19,0,*55
1486886855.39,7420,11.19,74022.8,-0.55,-35.65,-36.19,0,*59
1486886856.6,7421,11.19,74022.0,-0.53,-35.59,-36.13,0,*5B
1486886857.85,7422,11.19,74024.0,-0.49,-35.53,-35.95,0,*54
1486886859.08,7423,11.19,74024.0,-0.49,-35.23,-35.77,0,*5E
1486886860.3,7424,11.19,74020.3,-0.49,-35.23,-35.71,0,*5F
1486886861.55,7425,11.19,74024.0,-0.49,-35.41,-35.95,0,*50
1486886862.8,7426,11.19,74024.5,-0.49,-35.41,-35.95,0,*53
1486886864.04,7427,11.19,74022.3,-0.47,-35.71,-36.13,0,*52
1486886865.29,7428,11.19,74024.0,-0.47,-35.65,-36.01,0,*5B
1486886866.48,7429,11.19,74020.8,-0.45,-35.71,-36.31,0,*5E
1486886867.7,7430,11.19,74024.5,-0.45,-36.25,-36.85,0,*5B
1486886868.89,7431,11.19,74024.5,-0.45,-36.43,-37.03,0,*55
1486886870.11,7432,11.19,74024.5,-0.45,-36.79,-37.27,0,*59
1486886871.38,7433,11.19,74024.5,-0.47,-36.79,-37.21,0,*5C
1486886872.59,7434,11.19,74026.0,-0.47,-35.89,-36.43,0,*52
1486886873.82,7435,11.19,74024.0,-0.47,-35.01,-35.29,0,*5C
1486886875.04,7436,11.13,74022.8,-0.45,-34.35,-34.59,0,*5D
1486886876.25,7437,11.19,74024.3,-0.39,-34.25,-34.41,0,*5F
1486886877.49,7438,11.19,74024.8,-0.39,-34.31,-34.41,0,*55
1486886878.73,7439,11.19,74022.3,-0.35,-34.19,-34.25,0,*50
1486886879.97,7440,11.19,74024.5,-0.35,-33.83,-34.19,0,*55
1486886881.24,7441,11.19,74020.0,-0.31,-33.77,-34.01,0,*52
1486886882.48,7442,11.19,74024.0,-0.31,-33.95,-34.19,0,*54
1486886883.69,7443,11.19,74026.8,-0.27,-33.95,-34.13,0,*58
1486886884.91,7444,11.13,74020.0,-0.27,-34.07,-34.25,0,*56
1486886886.13,7445,11.19,74024.3,-0.25,-33.83,-34.01,0,*58
1486886887.37,7446,11.19,74024.3,-0.23,-34.07,-34.19,0,*5F
1486886888.59,7447,11.19,74024.3,-0.21,-33.95,-34.01,0,*59
1486886889.87,7448,11.19,74024.5,-0.17,-33.77,-34.01,0,*5F
1486886891.11,7449,11.19,74024.0,-0.15,-33.61,-33.89,0,*5C
1486886892.36,7450,11.19,74024.8,-0.13,-34.47,-34.83,0,*5C
1486886893.63,7451,11.19,74024.0,-0.13,-35.07,-35.23,0,*53
1486886894.83,7452,11.19,74024.5,-0.11,-35.01,-35.17,0,*53
1486886896.02,7453,11.19,74022.0,-0.11,-34.41,-34.59,0,*5C
1486886897.26,7454,11.13,74020.3,-0.09,-34.95,-35.17,0,*60
1486886898.51,7455,11.19,74026.3,-0.09,-34.77,-34.95,0,*66
1486886899.69,7456,11.19,74026.8,-0.07,-33.95,-34.07,0,*6B